Seale, AL

1:37 AM CST on February 10, 2016 (GMT -0600)
Lawson Army Air Field

Weather History for KLSF - July, 2013

Change the Weather History Date:

Tuesday, July 9, 2013

  Actual Average (KCSG) Record (KCSG)
Temperature  
Mean Temperature 80 °F 82 °F  
Max Temperature 91 °F 92 °F 101 °F (1998)
Min Temperature 68 °F 73 °F 64 °F (1983)
Degree Days  
Heating Degree Days 0 0  
Month to date heating degree days 0  
Since 1 June heating degree days 0  
Since 1 July heating degree days 0  
Cooling Degree Days 14 18  
Month to date cooling degree days 154  
Year to date cooling degree days 958  
Since 1 June cooling degree days 600  
Growing Degree Days 30 (Base 50)    
Moisture  
Dew Point 72 °F    
Average Humidity 87    
Maximum Humidity 100    
Minimum Humidity 58    
Precipitation  
Precipitation 0.00 in 0.17 in 2.67 in (1948)
Month to date precipitation 1.43  
Year to date precipitation 25.64  
Sea Level Pressure  
Sea Level Pressure 30.14 in    
Wind  
Wind Speed 1 mph (WSW)    
Max Wind Speed 6 mph    
Max Gust Speed -    
Visibility 8 miles    
Events Fog , Rain    
T = Trace of Precipitation, MM = Missing Value Source: NWS Daily Summary

Daily Weather History Graph

Daily Weather History Graph

Search for Another Location

Airport or City:

Trip Planner

Search our weather history database for the weather conditions in past years. The results will help you decide how hot, cold, wet, or windy it might be!

Date:

Astronomy

Jul. 09, 2013 Rise Set
Actual Time 6:40 AM EDT 8:49 PM EDT
Civil Twilight 6:12 AM EDT 9:17 PM EDT
Nautical Twilight 5:38 AM EDT 9:51 PM EDT
Astronomical Twilight 5:01 AM EDT 10:28 PM EDT
Moon 7:56 AM EDT (7/9) 9:35 PM EDT (7/9)
Length of Visible Light 15h 05m
Length of Day
14h 09m
New Moon, 2% of the Moon is Illuminated
Jul 9
New Moon
Jul 15
First Quarter
Jul 22
Full
Jul 29
Last Quarter
Aug 6
New

Hourly Weather History & Observations

Time (EDT) Temp. Heat Index Dew Point Humidity Pressure Visibility Wind Dir Wind Speed Gust Speed Precip Events Conditions
12:58 AM 71.2 °F - 69.8 °F 95% 30.17 in 10.0 mi West 1.2 mph - N/A   Mostly Cloudy
1:58 AM 70.7 °F - 70.3 °F 99% 30.14 in 10.0 mi Calm Calm - N/A   Clear
2:58 AM 69.3 °F - 68.9 °F 99% 30.14 in 10.0 mi NNW 2.3 mph - N/A   Clear
3:38 AM 69.8 °F - 68.0 °F 94% 30.14 in 4.0 mi Calm Calm - N/A   Clear
3:43 AM 69.8 °F - 69.8 °F 100% 30.14 in 2.0 mi Calm Calm - N/A   Clear
3:48 AM 69.8 °F - 69.8 °F 100% 30.14 in 1.8 mi Calm Calm - N/A   Clear
3:58 AM 69.1 °F - 68.9 °F 99% 30.14 in 1.8 mi West 2.3 mph - N/A   Clear
4:03 AM 68.0 °F - 68.0 °F 100% 30.15 in 2.0 mi NNW 4.6 mph - N/A   Clear
4:08 AM 68.0 °F - 68.0 °F 100% 30.15 in 4.0 mi NW 3.5 mph - N/A   Clear
4:13 AM 68.0 °F - 68.0 °F 100% 30.15 in 10.0 mi NW 2.3 mph - N/A   Clear
4:58 AM 68.0 °F - 67.6 °F 99% 30.15 in 10.0 mi NNW 2.3 mph - N/A   Clear
5:58 AM 68.4 °F - 68.0 °F 99% 30.17 in 10.0 mi SSE 3.5 mph - N/A   Clear
6:23 AM 68.0 °F - 68.0 °F 100% 30.16 in 5.0 mi Calm Calm - N/A   Clear
6:28 AM 68.0 °F - 68.0 °F 100% 30.16 in 4.0 mi Calm Calm - N/A   Clear
6:33 AM 68.0 °F - 68.0 °F 100% 30.16 in 0.8 mi Calm Calm - N/A   Clear
6:38 AM 68.0 °F - 68.0 °F 100% 30.16 in 0.5 mi Calm Calm - N/A Fog Fog
6:43 AM 68.0 °F - 68.0 °F 100% 30.16 in 1.2 mi Calm Calm - N/A   Clear
6:48 AM 68.0 °F - 68.0 °F 100% 30.16 in 9.0 mi Calm Calm - N/A   Clear
6:58 AM 68.2 °F - 67.8 °F 99% 30.17 in 10.0 mi Calm Calm - N/A   Clear
7:23 AM 69.8 °F - 69.8 °F 100% 30.16 in 10.0 mi Calm Calm - N/A Rain Light Rain
7:37 AM 69.8 °F - 69.8 °F 100% 30.16 in 10.0 mi Calm Calm - N/A   Clear
7:58 AM 70.5 °F - 70.2 °F 99% 30.17 in 10.0 mi NNW 1.2 mph - 0.00 in   Clear
8:58 AM 74.3 °F - 72.3 °F 94% 30.19 in 10.0 mi Calm Calm - N/A   Clear
9:01 AM 75.2 °F - 71.6 °F 89% 30.18 in 10.0 mi Calm Calm - N/A Rain Light Rain
9:16 AM 77.0 °F - 73.4 °F 89% 30.18 in 10.0 mi Calm Calm - N/A   Clear
9:18 AM 77.0 °F - 73.4 °F 89% 30.18 in 10.0 mi Calm Calm - N/A Rain Light Rain
9:28 AM 77.0 °F - 71.6 °F 83% 30.18 in 10.0 mi Calm Calm - N/A   Clear
9:40 AM 77.0 °F - 71.6 °F 83% 30.18 in 10.0 mi Variable 1.2 mph - N/A   Light Drizzle
9:58 AM 78.6 °F - 72.0 °F 80% 30.19 in 10.0 mi Calm Calm - 0.00 in   Light Drizzle
10:00 AM 78.8 °F - 71.6 °F 78% 30.18 in 10.0 mi NW 2.3 mph - N/A   Clear
10:58 AM 82.0 °F 87.4 °F 72.9 °F 74% 30.17 in 10.0 mi Variable 1.2 mph - 0.00 in   Clear
11:58 AM 84.6 °F 91.0 °F 72.9 °F 68% 30.17 in 10.0 mi Variable 3.5 mph - N/A   Clear
12:58 PM 86.9 °F 95.0 °F 73.9 °F 65% 30.17 in 10.0 mi SE 4.6 mph - N/A   Partly Cloudy
1:58 PM 88.3 °F 97.4 °F 74.1 °F 63% 30.15 in 10.0 mi Variable 2.3 mph - N/A   Scattered Clouds
2:58 PM 85.6 °F 94.6 °F 75.2 °F 71% 30.14 in 10.0 mi West 3.5 mph - N/A   Mostly Cloudy
3:58 PM 87.4 °F 97.7 °F 75.9 °F 68% 30.10 in 10.0 mi West 5.8 mph - N/A   Mostly Cloudy
4:07 PM 89.6 °F 102.2 °F 77.0 °F 66% 30.10 in 10.0 mi Variable 4.6 mph - N/A   Light Drizzle
4:11 PM 89.6 °F 99.8 °F 75.2 °F 62% 30.10 in 10.0 mi Variable 4.6 mph - N/A   Scattered Clouds
4:15 PM 89.6 °F 99.8 °F 75.2 °F 62% 30.09 in 10.0 mi Variable 2.3 mph - N/A   Light Drizzle
4:17 PM 89.6 °F 99.8 °F 75.2 °F 62% 30.09 in 10.0 mi Variable 1.2 mph - N/A   Partly Cloudy
4:58 PM 91.0 °F 101.0 °F 74.3 °F 58% 30.09 in 10.0 mi WSW 3.5 mph - 0.00 in   Partly Cloudy
5:58 PM 89.8 °F 99.2 °F 74.3 °F 60% 30.07 in 10.0 mi WSW 4.6 mph - N/A   Clear
6:58 PM 86.7 °F 98.8 °F 77.4 °F 74% 30.09 in 10.0 mi South 2.3 mph - N/A   Scattered Clouds
7:28 PM 84.2 °F 94.1 °F 77.0 °F 79% 30.07 in 10.0 mi SW 2.3 mph - N/A   Mostly Cloudy
7:43 PM 84.2 °F 94.1 °F 77.0 °F 79% 30.07 in 10.0 mi Calm Calm - N/A   Mostly Cloudy
7:58 PM 83.5 °F 94.0 °F 78.1 °F 84% 30.07 in 10.0 mi Calm Calm - N/A   Partly Cloudy
8:58 PM 81.0 °F 88.6 °F 78.1 °F 91% 30.09 in 10.0 mi SE 1.2 mph - N/A   Clear
9:58 PM 79.7 °F - 77.5 °F 93% 30.10 in 10.0 mi Calm Calm - N/A   Partly Cloudy
10:05 PM 78.8 °F - 77.0 °F 94% 30.10 in 10.0 mi SE 1.2 mph - N/A Rain Light Rain
10:10 PM 78.8 °F - 77.0 °F 94% 30.09 in 10.0 mi SSE 1.2 mph - N/A   Clear
10:58 PM 77.4 °F - 77.0 °F 99% 30.10 in 10.0 mi Calm Calm - 0.00 in   Clear
11:53 PM 77.0 °F - 77.0 °F 100% 30.10 in 9.0 mi SSE 2.3 mph - N/A   Clear
11:58 PM 77.2 °F - 76.8 °F 99% 30.10 in 10.0 mi SSE 2.3 mph - N/A   Clear